Regional Weather Roundup
Issued by NWS Sterling, VA

Home | Current Version | Previous Version | Text Only | Print | Product List | Glossary On
Versions: 1 2 3 4 5 6 7 8 9 10 11 12 13 14 15 16 17 18 19 20 21 22 23 24 25 26 27
000
ASUS41 KLWX 271311
RWRLWX

REGIONAL WEATHER ROUNDUP
NATIONAL WEATHER SERVICE BALTIMORE MD/WASHINGTON DC
900 AM EDT SUN MAY 27 2018

Note: "FAIR" indicates few or no clouds below 12,000 feet
with no significant weather and/or obstructions to visibility.
 TC=TEMPERATURE CELSIUS

 * =Non NWS site. Station does not report precipitation (e.g. rain,
    snow, etc.), thunder, or fog.

DCZ001-MDZ009-015-VAZ040>042-051-053>054-271400-
WASHINGTON METRO

CITY           SKY/WX    TMP DP  RH WIND       PRES   REMARKS
WASHINGTON NAT PTSUNNY   76  71  85 S8        29.92S
DULLES         PTSUNNY   76  71  85 W3        29.93R
ANDREWS AFB    FAIR      76  71  86 SW7       29.92R
FT BELVOIR     PTSUNNY   75  72  88 S7        29.93R
QUANTICO       CLOUDY    76  73  91 SW6       29.94R
COLLEGE PARK*  FAIR      76  70  81 CALM      29.91S
LEESBURG*      FAIR      77  70  78 CALM      29.94R
MANASSAS*      PTSUNNY   74  72  93 S6        29.94R
GAITHERSBURG*  FAIR      75  71  87 VRB3      29.94

$$

MDZ006>007-011-014-271400-
BALTIMORE METRO

CITY           SKY/WX    TMP DP  RH WIND       PRES   REMARKS
BWI AIRPORT    CLOUDY    75  71  87 NW6       29.91R
MD SCIENCE CTR   N/A     79  72  79 MISG      29.91R
MARTIN STATE   CLOUDY    77  73  88 CALM      29.92R
ANNAPOLIS      CLOUDY    78  30  17 S5        29.91R
FORT MEADE*    CLOUDY    73  72  94 CALM      29.94R

$$

MDZ012-015-019>023-271400-
MARYLAND EASTERN SHORE

CITY           SKY/WX    TMP DP  RH WIND       PRES   REMARKS
OCEAN CITY     CLOUDY    74  72  93 SW8       29.95R
SALISBURY      CLOUDY    76  72  87 SW9       29.94R
BAY BRIDGE AP* CLOUDY    75  72  88 SW7       29.92R HAZE
CAMBRIDGE*     CLOUDY    75  73  94 SW3       29.93S
EASTON*        CLOUDY    75  72  88 SW7       29.96R

$$

MDZ017>025-271400-
SOUTHERN MARYLAND

CITY           SKY/WX    TMP DP  RH WIND       PRES   REMARKS
PATUXENT RIVER PTSUNNY   79  71  76 W10       29.93R
ST INIGOES     CLOUDY    76  72  87 SW10      29.93R
LEONARDTOWN*   CLOUDY    73  70  88 SW8       29.95S

$$

MDZ003>005-271400-
NORTH CENTRAL MARYLAND

CITY           SKY/WX    TMP DP  RH WIND       PRES   REMARKS
FREDERICK*     SUNNY     79  70  73 CALM      29.95R
HAGERSTOWN APT FAIR      76  70  82 W3        29.95R
WESTMINSTER*   FAIR      77  70  78 NW5       29.94R

$$

MDZ501>502-271400-
WESTERN MARYLAND

CITY           SKY/WX    TMP DP  RH WIND       PRES   REMARKS
OAKLAND*       PTSUNNY   64  64 100 SW7       30.04R
CUMBERLAND*    PTSUNNY   73  70  88 CALM      30.01R

$$

VAZ025>031-271400-
SHENANDOAH VALLEY

CITY           SKY/WX    TMP DP  RH WIND       PRES   REMARKS
WINCHESTER*    FAIR      73  68  83 W3        29.97R
FRONT ROYAL*     N/A     75  72  88 S3        29.94R VSB 1
LURAY*         FAIR      73  70  88 SW5       29.96R
NEW MARKET*    PTSUNNY   74  70  88 W3        29.95R
STAUNTON*      FAIR      73  68  86 CALM      29.99S
WAYNESBORO*    FAIR      74  69  83 SW3       29.99R

$$

WVZ021-048>050-054>055-271400-
EASTERN WEST VIRGINIA PANHANDLE

CITY           SKY/WX    TMP DP  RH WIND       PRES   REMARKS
MARTINSBURG    FAIR      76  68  76 N5        29.93R
PETERSBURG*    FAIR      73  67  81 CALM      29.97R

$$

VAZ036>039-050-271400-
CENTRAL FOOTHILLS

CITY           SKY/WX    TMP DP  RH WIND       PRES   REMARKS
CHARLOTTESVILL FAIR      76  71  85 VRB3      29.95R
CULPEPER*      PTSUNNY   75  72  89 CALM      29.95R
ORANGE*        CLOUDY    72  70  94 S3        29.95R
GORDONSVILLE*  PTSUNNY   74  72  96 CALM      29.95R
WARRENTON*     FAIR      76  70  82 S5        29.94R

$$

VAZ055>057-271400-
NORTH AND CENTRAL PIEDMONT

CITY           SKY/WX    TMP DP  RH WIND       PRES   REMARKS
FREDERICKSBRG* CLOUDY    75  74  97 CALM      29.94R
STAFFORD*      CLOUDY    75  75 100 CALM      29.98R

$$

NCZ024-NYZ072-PAZ021-071-VAZ022-071-271400-
OTHER REGIONAL OBSERVATIONS

CITY           SKY/WX    TMP DP  RH WIND       PRES   REMARKS
NEW YORK CITY  RAIN      61  60  97 E10G20    30.03R FOG
PHILADELPHIA   CLOUDY    68  65  90 NE12      29.93R
PITTSBURGH     CLOUDY    68  66  93 SW3       29.95R
ROANOKE        PTSUNNY   72  66  81 SW5       30.01R
RICHMOND       CLOUDY    75  71  87 SW8       29.96R
RALEIGH        CLOUDY    73  71  93 SW12      30.03R

$$

ANZ530>537-271400-
MARINE OBSERVATIONS

STATION/POSITION TIME  TEMP    WIND        PRES
                       AIR SEA DIR/SP/G
                 (UTC) (F)     (DEG/KT/KT) (MB)
THOMAS PT LIGHT  1300   74 70  210/  6/  7 1014.1R
BALT KEY BRIDGE  1248   74     270/  4/  5 1012.7R
COVE POINT       1248   75     280/  6/ 10 1014.1R
LEWISETTA        1248   75 75  260/  8/ 10 1013.8R
SOLOMONS ISLAND  1248   75 73  250/  8/ 10 1013.3R
PINEY POINT      1236          270/ 10/ 12   N/A

$$





USA.gov is the U.S. government's official web portal to all federal, state and local government web resources and services.